Location: Maccacari
(45.1333°N, 11.1333°E)
Time: 10:58:18
(UTC+00:00)

Vanguard 2 - Pass Details

Date: 28 January 2021
Orbit: 552 x 2938 km, 32.9° (Epoch: 24 February)

Event Time Altitude Azimuth Distance (km) Brightness Sun altitude
Rises 15:45:31 0° 238° (WSW) 2,801 13.8 4.1°
Reaches altitude 10° 15:48:33 10° 215° (SW) 1,822 10.9 3.7°
Maximum altitude 15:50:56 15° 177° (S) 1,510 9.5 3.3°
Drops below altitude 10° 15:53:24 10° 139° (SE) 1,890 9.5 2.9°
Sets 15:56:39 0° 117° (ESE) 2,971 10.2 2.4°
